SCP
-0 -0 -0 -0 -0 -0 -0 -0 -0 -0 -0 -0 -0 -0 -0 0 0 -0 -0 0 0 0 0 0 0 -0 0 0 0 0 0 0 -0 -0 -0 -0 0 0 0 -0 -0 -0 -0
-0 -0 -0 -0 -0 -0 -0 -0 -0 -0 -0 -0 -0 -0 0 0 0 0 0 0 0 0 0 0 0 0 0 0 0 0 0 0 0 -0 -0 -0 -0 0 0 0 0 -0 -0
-0 -0 -0 -0 -0 -0 -0 -0 -0 -0 -0 -0 -0 0 0 0 0 0 0 0 0 0 -0 -0 0 0 0 0 0 0 0 0 0 0 0 0 0 0 0 0 0 -0 -0
-0 -0 -0 -0 -0 -0 -0 -0 -0 -0 -0 0 0 0 0 0 0 0 0 0 0 0 -0 -0 -0 -0 0 0 0 0 -0 -0 0 0 0 0 0 0 0 0 0 0 0
-0 -0 -0 -0 -0 -0 -0 -0 -0 -0 0 0 0 0 0 0 0 0 0 0 0 0 -0 -0 0 0 0 0 0 0 0 0 0 0 0 0 0 -0 0 0 0 0 0
-0 -0 -0 -0 -0 -0 -0 -0 -0 0 0 0 0 0 0 0 0 0 0 0 0 0 0 -0 0 0 0 0 0 0 0 0 0 0 0 0 0 0 -0 -0 0 0 0
-0 -0 -0 -0 -0 -0 -0 -0 0 0 0 0 0 0 0 0 -0 0 0 0 0 0 0 -0 0 0 0 0 0 0 0 0 0 0 0 0 -0 0 -0 -0 -0 -0 0
-0 -0 -0 -0 -0 -0 -0 0 0 0 0 0 0 0 -0 0 0 -0 0 -0 0 0 -0 0 0 0 0 0 0 0 0 0 -0 0 -0 -0 -0 -0 -0 -0 -0 -0 -0
-0 -0 -0 -0 -0 -0 -0 0 0 0 0 0 -0 0 0 0 0 -0 0 0 0 0 0 0 -0 0 0 -0 0 -0 0 0 -0 -0 -0 -0 -0 -0 -0 -0 -0 -0 -0
-0 -0 -0 -0 0 0 0 0 0 0 0 -0 0 0 0 0 0 0 0 0 0 0 0 0 0 0 0 -0 -0 -0 -0 0 0 0 -0 -0 -0 -0 -0 -0 -0 -0 -0
-0 -0 -0 -0 -0 0 0 0 0 0 0 0 0 0 0 0 0 0 0 0 0 0 0 0 0 0 0 0 -0 0 0 0 0 0 -0 -0 -0 -0 -0 -0 -0 -0 -0
-0 -0 -0 -0 -0 0 0 0 0 0 0 -0 0 0 0 0 0 0 0 0 0 0 0 0 0 0 0 0 -0 0 -0 -0 -0 -0 0 -0 -0 -0 -0 -0 -0 -0 -0
-0 0 0 0 0 -0 -0 -0 0 0 0 -0 0 0 0 0 0 0 0 0 0 0 0 0 0 0 0 0 0 0 0 0 0 0 -0 -0 -0 -0 -0 -0 -0 -0 -0
-0 0 0 0 0 0 -0 -0 -0 0 0 -0 -0 0 0 0 0 0 0 0 0 0 0 0 0 0 0 0 0 0 0 0 0 0 0 -0 -0 0 0 -0 -0 -0 -0
-0 0 0 0 0 0 -0 -0 -0 -0 -0 -0 0 0 0 0 0 0 0 0 0 0 0 0 0 0 0 0 0 0 0 0 0 0 0 -0 -0 -0 0 0 0 0 0
-0 0 0 0 0 0 0 -0 0 0 0 0 0 0 0 0 0 0 0 0 0 0 0 0 0 0 0 0 0 0 0 0 0 0 0 0 -0 -0 -0 -0 -0 -0 0
0 0 0 0 0 0 0 0 0 0 0 0 0 0 0 0 0 0 0 0 0 0 0 0 0 0 0 0 0 0 0 0 0 0 0 0 0 -0 -0 -0 -0 -0 -1
0 0 0 0 0 0 0 0 0 0 0 0 0 0 0 0 0 0 0 0 0 0 0 0 0 0 0 0 0 0 0 0 0 0 0 0 0 0 0 0 0 0 0
0 0 0 0 0 0 0 0 0 0 0 0 0 0 0 0 0 0 0 0 0 0 0 0 0 0 0 0 0 0 0 0 0 0 0 0 0 0 0 0 0 0 0
0 0 0 0 0 0 0 1 0 0 0 0 0 0 0 0 0 0 0 0 0 0 0 0 0 0 0 0 0 0 0 0 0 0 0 0 0 0 0 0 0 0 0
0 0 0 0 0 0 1 0 0 0 0 0 0 0 0 0 0 0 0 0 0 0 0 0 0 0 0 0 0 0 0 0 0 0 0 0 0 0 0 0 0 0 0
0 0 0 0 1 1 1 0 0 0 0 0 0 0 0 0 0 0 0 0 0 0 0 0 0 0 0 0 0 0 0 0 0 0 0 0 0 0 0 0 0 0 0
0 0 0 1 1 1 0 0 0 0 0 0 0 0 0 0 0 0 0 0 0 0 0 0 0 0 0 0 0 0 0 0 0 0 0 0 0 0 0 0 0 0 0
0 1 1 1 1 0 0 0 0 0 0 0 0 0 0 0 0 0 0 0 0 0 0 0 0 0 0 0 0 0 0 0 0 0 0 0 0 0 0 0 0 0 0
0 1 1 0 0 0 0 0 0 0 0 0 0 0 0 0 0 0 0 0 0 0 0 0 0 0 0 0 0 0 0 0 0 0 0 0 0 0 0 0 0 0 0
0 0 0 0 0 0 0 0 0 0 0 0 0 0 0 0 0 0 0 0 0 0 0 0 0 0 0 0 0 0 0 0 0 0 0 0 0 0 0 0 0 0 0
Wind_Speed_500mb
47 45 44 38 36 38 43 46 51 51 46 41 35 31 35 38 37 36 35 32 31 31 32 34 34 35 38 38 38 36 33 31 32 33 34 34 34 32 30 29 32 32 27
53 48 47 39 37 40 44 47 48 49 45 40 37 38 42 42 38 36 35 32 30 29 31 32 32 35 36 34 34 34 35 33 31 31 33 35 34 33 31 30 29 29 28
55 52 50 42 39 41 45 47 47 45 42 41 41 44 43 39 36 35 32 29 27 26 28 29 31 33 29 26 27 28 31 33 32 29 30 29 32 33 32 32 31 29 27
55 55 52 46 42 42 45 46 47 48 46 45 47 46 41 37 35 33 32 28 27 25 27 30 30 30 29 28 27 25 24 27 31 31 29 28 29 30 30 31 31 30 29
56 55 52 48 46 44 43 45 48 51 51 50 47 43 40 36 34 34 31 27 27 25 27 29 29 27 27 26 25 23 23 25 26 30 28 26 25 26 28 28 28 28 28
57 57 54 50 48 47 46 46 48 52 52 49 45 41 39 36 34 32 29 26 24 24 25 26 26 25 22 20 18 19 21 24 25 21 24 25 24 23 26 26 25 25 25
58 59 57 54 50 48 49 50 51 52 50 46 43 41 38 36 34 32 29 24 22 24 25 25 24 22 19 15 14 14 14 18 21 19 21 22 20 22 22 24 24 23 22
58 63 60 57 54 52 51 53 54 53 50 46 43 41 38 36 33 30 26 24 21 23 23 21 20 17 15 15 12 10 11 12 17 16 18 19 19 20 20 22 21 20 20
59 62 60 59 58 56 55 56 56 54 50 46 43 41 38 35 33 30 27 25 24 22 21 19 18 17 16 16 14 12 13 10 13 14 14 16 17 17 17 19 20 18 16
64 64 64 61 59 61 61 60 60 57 52 47 44 39 37 35 32 30 29 27 26 25 24 23 21 18 16 17 15 12 11 10 15 12 12 12 14 14 13 13 15 15 14
68 70 68 64 58 59 61 64 63 59 53 48 43 39 37 36 33 30 30 29 27 26 26 27 22 17 17 16 10 8 8 8 11 14 14 12 11 11 9 7 8 9 10
74 76 72 70 67 60 59 65 66 62 57 52 46 41 38 37 35 34 31 31 29 27 25 26 24 21 21 19 15 12 9 8 12 15 16 12 10 8 5 2 2 2 3
69 69 72 71 70 66 62 63 65 66 62 56 50 44 41 40 38 35 31 30 29 28 23 22 23 22 19 16 12 6 5 6 9 9 15 15 10 6 5 4 7 7 8
64 72 71 71 71 68 56 66 67 68 64 59 53 49 46 43 42 38 34 33 31 28 24 22 23 19 15 10 6 5 7 4 7 9 17 15 13 9 6 9 11 13 14
66 74 74 72 73 71 64 62 68 68 65 60 55 52 50 48 47 42 39 35 32 30 25 21 20 17 12 7 6 9 9 6 8 11 16 17 16 10 9 11 12 15 15
68 74 74 72 74 74 72 66 67 67 65 62 58 55 54 51 48 46 40 35 32 31 30 25 21 16 11 10 13 10 8 7 8 10 12 15 17 15 14 17 12 10 10
68 67 70 73 76 77 73 70 67 67 65 63 60 59 57 55 53 48 42 39 37 37 34 32 26 20 18 19 18 12 10 11 13 16 18 20 20 21 19 16 8 7 17
65 66 67 73 77 75 74 72 71 69 66 64 63 62 62 58 57 51 44 41 39 39 37 32 31 27 24 22 19 17 16 17 18 20 20 23 24 23 19 20 19 20 9
56 63 63 73 77 74 74 76 75 72 70 70 67 67 65 62 58 54 46 41 40 40 40 37 35 33 29 25 25 21 19 18 21 24 27 26 25 23 22 18 16 13 16
37 53 61 67 75 77 76 81 81 79 77 75 73 72 69 69 63 58 55 48 46 44 43 42 40 38 34 30 31 26 24 27 26 26 26 25 23 21 18 15 15 14 17
40 42 50 67 72 76 83 88 88 89 84 82 81 77 74 70 64 60 57 54 52 51 49 47 45 42 39 37 33 29 26 29 31 29 25 22 20 18 16 15 14 9 9
51 48 54 59 72 79 83 89 91 92 92 89 86 82 79 76 71 65 62 60 57 54 53 50 46 45 44 41 30 27 20 22 30 29 25 23 21 19 18 17 15 11 10
44 59 60 61 68 76 77 77 93 95 93 91 88 90 88 83 78 75 72 68 62 58 54 51 49 48 49 47 43 32 18 20 31 33 31 26 23 21 19 16 13 12 11
27 49 63 54 53 59 61 76 95 98 96 100 96 97 94 92 88 85 81 76 69 62 57 52 50 50 50 49 53 57 39 26 26 24 33 32 28 24 24 20 16 12 9
22 36 49 56 43 42 55 72 90 93 96 96 97 98 96 96 92 89 86 81 73 63 55 52 51 50 53 56 57 65 52 33 35 26 36 34 33 25 28 25 19 14 9
10 17 25 34 41 55 65 78 83 83 93 106 104 100 102 102 99 90 81 76 68 58 53 51 53 55 55 52 58 63 62 45 44 37 33 41 34 38 31 28 23 15 8
Wind_Direction_500mb
174 173 174 172 160 160 161 162 162 161 159 157 153 143 133 129 128 130 130 129 126 121 118 113 109 105 104 101 95 90 87 90 91 92 91 88 90 91 94 97 104 102 107
169 173 173 172 165 161 161 163 163 163 162 160 151 141 134 127 127 126 126 128 125 122 119 118 114 111 108 104 98 94 87 87 92 93 90 88 87 88 89 93 97 100 104
169 173 172 173 167 162 161 162 164 165 163 157 149 140 135 131 128 124 125 128 130 130 130 127 119 121 115 113 105 95 88 82 85 94 96 98 91 89 88 90 92 94 96
170 170 173 173 171 166 161 160 160 161 158 153 147 143 139 135 133 128 126 126 125 126 128 136 128 122 110 103 101 95 89 84 85 89 97 99 97 95 93 92 93 93 95
170 172 174 175 174 171 166 160 157 156 154 151 147 145 142 140 136 133 133 132 128 127 129 135 133 127 117 106 97 90 86 85 87 86 92 99 100 99 96 93 92 92 90
170 172 176 177 176 173 169 162 158 155 154 151 150 150 148 145 142 143 141 138 135 136 138 140 140 131 121 111 101 92 86 82 81 83 89 98 105 106 103 99 97 97 96
170 173 178 177 178 177 173 166 164 160 158 157 156 155 154 152 150 150 148 146 146 145 145 147 145 141 132 117 108 102 94 89 85 85 89 93 101 107 111 111 107 104 103
174 175 179 178 178 180 178 173 169 166 165 164 162 161 160 160 158 157 156 157 158 154 155 156 154 149 142 131 128 119 113 110 98 98 96 96 99 103 108 112 111 109 109
178 179 179 179 180 182 181 179 174 173 171 168 166 166 167 167 166 166 169 169 169 168 166 163 159 155 150 142 140 133 143 134 138 114 109 107 104 101 104 108 112 113 112
179 182 183 182 182 184 183 183 180 177 175 173 171 172 174 173 173 173 177 177 174 172 167 160 157 159 151 144 151 154 149 131 158 143 124 115 108 103 100 101 104 112 117
181 185 185 184 183 186 186 184 184 183 181 179 179 180 181 180 177 175 180 178 174 170 165 162 158 151 156 155 164 161 161 184 186 175 157 140 129 116 111 108 110 115 117
185 186 188 186 186 188 187 186 188 187 187 186 186 186 186 184 181 178 178 180 177 175 171 166 161 150 141 141 136 119 105 153 158 168 183 171 155 147 142 162 162 165 160
189 189 190 189 189 191 191 190 191 191 192 192 191 191 191 188 184 183 181 186 185 185 180 174 170 167 163 162 169 174 140 123 175 186 200 192 186 180 207 233 269 261 248
194 193 194 195 194 195 195 196 194 195 195 196 195 194 195 193 189 191 189 192 195 192 190 181 183 185 188 200 223 262 279 237 205 210 200 198 202 216 254 276 281 276 264
200 197 198 199 198 201 203 200 199 199 200 200 200 199 197 197 193 193 193 196 201 204 202 200 193 198 206 222 286 304 300 276 217 213 204 210 212 224 240 261 262 260 266
209 204 200 202 204 203 207 207 206 205 204 205 204 204 201 200 200 198 203 208 211 215 214 209 213 221 236 264 295 298 287 261 229 213 209 222 216 238 248 260 257 257 268
219 213 210 205 207 208 207 209 211 211 210 209 208 207 206 206 207 210 214 217 221 223 221 217 216 233 257 276 281 262 244 229 218 213 221 209 217 224 238 206 207 272 310
227 223 218 212 212 212 212 212 213 213 212 212 211 212 212 213 214 216 223 224 228 225 221 213 221 238 253 267 256 244 231 223 218 213 205 206 211 218 219 243 271 281 273
239 230 227 222 218 217 215 216 216 216 214 214 214 216 218 218 220 221 223 226 226 222 224 225 232 245 255 250 244 233 218 206 195 199 192 201 201 212 235 243 256 245 222
260 241 235 234 228 225 222 219 219 219 216 217 218 219 222 223 225 228 229 228 228 228 227 232 236 242 246 234 230 224 210 199 197 197 197 202 210 220 231 231 231 227 222
261 254 247 242 238 235 229 225 223 221 220 220 221 222 222 224 226 227 228 226 227 229 232 237 239 238 230 224 218 202 194 194 187 188 191 200 205 209 211 202 191 161 197
242 245 246 245 243 240 238 234 231 226 223 225 224 224 223 223 225 228 228 228 229 230 233 234 235 230 223 218 204 180 173 184 186 189 190 194 194 194 195 195 186 180 159
241 231 239 240 245 241 239 235 237 235 230 226 225 224 224 223 224 227 229 231 232 235 238 238 229 224 224 216 215 202 175 198 176 189 191 184 190 186 187 185 179 178 177
244 238 232 234 241 245 245 238 240 241 236 228 226 222 222 225 225 226 230 230 231 236 237 233 225 219 217 224 223 218 211 192 185 176 187 184 182 175 177 174 179 172 160
231 231 237 234 240 254 270 253 245 245 242 238 230 225 223 224 224 225 225 226 230 232 230 228 228 227 234 228 220 214 212 208 199 176 179 176 180 179 183 182 182 185 177
241 240 256 252 248 256 257 247 251 246 251 247 243 230 225 223 222 219 217 219 221 223 225 227 231 230 229 222 215 215 216 209 200 192 174 179 182 181 186 186 185 190 197
Wind_Speed_850mb
47 45 44 38 36 38 43 46 51 51 46 41 35 31 35 38 37 36 35 32 31 31 32 34 34 35 38 38 38 36 33 31 32 33 34 34 34 32 30 29 32 32 27
53 48 47 39 37 40 44 47 48 49 45 40 37 38 42 42 38 36 35 32 30 29 31 32 32 35 36 34 34 34 35 33 31 31 33 35 34 33 31 30 29 29 28
55 52 50 42 39 41 45 47 47 45 42 41 41 44 43 39 36 35 32 29 27 26 28 29 31 33 29 26 27 28 31 33 32 29 30 29 32 33 32 32 31 29 27
55 55 52 46 42 42 45 46 47 48 46 45 47 46 41 37 35 33 32 28 27 25 27 30 30 30 29 28 27 25 24 27 31 31 29 28 29 30 30 31 31 30 29
56 55 52 48 46 44 43 45 48 51 51 50 47 43 40 36 34 34 31 27 27 25 27 29 29 27 27 26 25 23 23 25 26 30 28 26 25 26 28 28 28 28 28
57 57 54 50 48 47 46 46 48 52 52 49 45 41 39 36 34 32 29 26 24 24 25 26 26 25 22 20 18 19 21 24 25 21 24 25 24 23 26 26 25 25 25
58 59 57 54 50 48 49 50 51 52 50 46 43 41 38 36 34 32 29 24 22 24 25 25 24 22 19 15 14 14 14 18 21 19 21 22 20 22 22 24 24 23 22
58 63 60 57 54 52 51 53 54 53 50 46 43 41 38 36 33 30 26 24 21 23 23 21 20 17 15 15 12 10 11 12 17 16 18 19 19 20 20 22 21 20 20
59 62 60 59 58 56 55 56 56 54 50 46 43 41 38 35 33 30 27 25 24 22 21 19 18 17 16 16 14 12 13 10 13 14 14 16 17 17 17 19 20 18 16
64 64 64 61 59 61 61 60 60 57 52 47 44 39 37 35 32 30 29 27 26 25 24 23 21 18 16 17 15 12 11 10 15 12 12 12 14 14 13 13 15 15 14
68 70 68 64 58 59 61 64 63 59 53 48 43 39 37 36 33 30 30 29 27 26 26 27 22 17 17 16 10 8 8 8 11 14 14 12 11 11 9 7 8 9 10
74 76 72 70 67 60 59 65 66 62 57 52 46 41 38 37 35 34 31 31 29 27 25 26 24 21 21 19 15 12 9 8 12 15 16 12 10 8 5 2 2 2 3
69 69 72 71 70 66 62 63 65 66 62 56 50 44 41 40 38 35 31 30 29 28 23 22 23 22 19 16 12 6 5 6 9 9 15 15 10 6 5 4 7 7 8
64 72 71 71 71 68 56 66 67 68 64 59 53 49 46 43 42 38 34 33 31 28 24 22 23 19 15 10 6 5 7 4 7 9 17 15 13 9 6 9 11 13 14
66 74 74 72 73 71 64 62 68 68 65 60 55 52 50 48 47 42 39 35 32 30 25 21 20 17 12 7 6 9 9 6 8 11 16 17 16 10 9 11 12 15 15
68 74 74 72 74 74 72 66 67 67 65 62 58 55 54 51 48 46 40 35 32 31 30 25 21 16 11 10 13 10 8 7 8 10 12 15 17 15 14 17 12 10 10
68 67 70 73 76 77 73 70 67 67 65 63 60 59 57 55 53 48 42 39 37 37 34 32 26 20 18 19 18 12 10 11 13 16 18 20 20 21 19 16 8 7 17
65 66 67 73 77 75 74 72 71 69 66 64 63 62 62 58 57 51 44 41 39 39 37 32 31 27 24 22 19 17 16 17 18 20 20 23 24 23 19 20 19 20 9
56 63 63 73 77 74 74 76 75 72 70 70 67 67 65 62 58 54 46 41 40 40 40 37 35 33 29 25 25 21 19 18 21 24 27 26 25 23 22 18 16 13 16
37 53 61 67 75 77 76 81 81 79 77 75 73 72 69 69 63 58 55 48 46 44 43 42 40 38 34 30 31 26 24 27 26 26 26 25 23 21 18 15 15 14 17
40 42 50 67 72 76 83 88 88 89 84 82 81 77 74 70 64 60 57 54 52 51 49 47 45 42 39 37 33 29 26 29 31 29 25 22 20 18 16 15 14 9 9
51 48 54 59 72 79 83 89 91 92 92 89 86 82 79 76 71 65 62 60 57 54 53 50 46 45 44 41 30 27 20 22 30 29 25 23 21 19 18 17 15 11 10
44 59 60 61 68 76 77 77 93 95 93 91 88 90 88 83 78 75 72 68 62 58 54 51 49 48 49 47 43 32 18 20 31 33 31 26 23 21 19 16 13 12 11
27 49 63 54 53 59 61 76 95 98 96 100 96 97 94 92 88 85 81 76 69 62 57 52 50 50 50 49 53 57 39 26 26 24 33 32 28 24 24 20 16 12 9
22 36 49 56 43 42 55 72 90 93 96 96 97 98 96 96 92 89 86 81 73 63 55 52 51 50 53 56 57 65 52 33 35 26 36 34 33 25 28 25 19 14 9
10 17 25 34 41 55 65 78 83 83 93 106 104 100 102 102 99 90 81 76 68 58 53 51 53 55 55 52 58 63 62 45 44 37 33 41 34 38 31 28 23 15 8
Wind_Direction_850mb
174 173 174 172 160 160 161 162 162 161 159 157 153 143 133 129 128 130 130 129 126 121 118 113 109 105 104 101 95 90 87 90 91 92 91 88 90 91 94 97 104 102 107
169 173 173 172 165 161 161 163 163 163 162 160 151 141 134 127 127 126 126 128 125 122 119 118 114 111 108 104 98 94 87 87 92 93 90 88 87 88 89 93 97 100 104
169 173 172 173 167 162 161 162 164 165 163 157 149 140 135 131 128 124 125 128 130 130 130 127 119 121 115 113 105 95 88 82 85 94 96 98 91 89 88 90 92 94 96
170 170 173 173 171 166 161 160 160 161 158 153 147 143 139 135 133 128 126 126 125 126 128 136 128 122 110 103 101 95 89 84 85 89 97 99 97 95 93 92 93 93 95
170 172 174 175 174 171 166 160 157 156 154 151 147 145 142 140 136 133 133 132 128 127 129 135 133 127 117 106 97 90 86 85 87 86 92 99 100 99 96 93 92 92 90
170 172 176 177 176 173 169 162 158 155 154 151 150 150 148 145 142 143 141 138 135 136 138 140 140 131 121 111 101 92 86 82 81 83 89 98 105 106 103 99 97 97 96
170 173 178 177 178 177 173 166 164 160 158 157 156 155 154 152 150 150 148 146 146 145 145 147 145 141 132 117 108 102 94 89 85 85 89 93 101 107 111 111 107 104 103
174 175 179 178 178 180 178 173 169 166 165 164 162 161 160 160 158 157 156 157 158 154 155 156 154 149 142 131 128 119 113 110 98 98 96 96 99 103 108 112 111 109 109
178 179 179 179 180 182 181 179 174 173 171 168 166 166 167 167 166 166 169 169 169 168 166 163 159 155 150 142 140 133 143 134 138 114 109 107 104 101 104 108 112 113 112
179 182 183 182 182 184 183 183 180 177 175 173 171 172 174 173 173 173 177 177 174 172 167 160 157 159 151 144 151 154 149 131 158 143 124 115 108 103 100 101 104 112 117
181 185 185 184 183 186 186 184 184 183 181 179 179 180 181 180 177 175 180 178 174 170 165 162 158 151 156 155 164 161 161 184 186 175 157 140 129 116 111 108 110 115 117
185 186 188 186 186 188 187 186 188 187 187 186 186 186 186 184 181 178 178 180 177 175 171 166 161 150 141 141 136 119 105 153 158 168 183 171 155 147 142 162 162 165 160
189 189 190 189 189 191 191 190 191 191 192 192 191 191 191 188 184 183 181 186 185 185 180 174 170 167 163 162 169 174 140 123 175 186 200 192 186 180 207 233 269 261 248
194 193 194 195 194 195 195 196 194 195 195 196 195 194 195 193 189 191 189 192 195 192 190 181 183 185 188 200 223 262 279 237 205 210 200 198 202 216 254 276 281 276 264
200 197 198 199 198 201 203 200 199 199 200 200 200 199 197 197 193 193 193 196 201 204 202 200 193 198 206 222 286 304 300 276 217 213 204 210 212 224 240 261 262 260 266
209 204 200 202 204 203 207 207 206 205 204 205 204 204 201 200 200 198 203 208 211 215 214 209 213 221 236 264 295 298 287 261 229 213 209 222 216 238 248 260 257 257 268
219 213 210 205 207 208 207 209 211 211 210 209 208 207 206 206 207 210 214 217 221 223 221 217 216 233 257 276 281 262 244 229 218 213 221 209 217 224 238 206 207 272 310
227 223 218 212 212 212 212 212 213 213 212 212 211 212 212 213 214 216 223 224 228 225 221 213 221 238 253 267 256 244 231 223 218 213 205 206 211 218 219 243 271 281 273
239 230 227 222 218 217 215 216 216 216 214 214 214 216 218 218 220 221 223 226 226 222 224 225 232 245 255 250 244 233 218 206 195 199 192 201 201 212 235 243 256 245 222
260 241 235 234 228 225 222 219 219 219 216 217 218 219 222 223 225 228 229 228 228 228 227 232 236 242 246 234 230 224 210 199 197 197 197 202 210 220 231 231 231 227 222
261 254 247 242 238 235 229 225 223 221 220 220 221 222 222 224 226 227 228 226 227 229 232 237 239 238 230 224 218 202 194 194 187 188 191 200 205 209 211 202 191 161 197
242 245 246 245 243 240 238 234 231 226 223 225 224 224 223 223 225 228 228 228 229 230 233 234 235 230 223 218 204 180 173 184 186 189 190 194 194 194 195 195 186 180 159
241 231 239 240 245 241 239 235 237 235 230 226 225 224 224 223 224 227 229 231 232 235 238 238 229 224 224 216 215 202 175 198 176 189 191 184 190 186 187 185 179 178 177
244 238 232 234 241 245 245 238 240 241 236 228 226 222 222 225 225 226 230 230 231 236 237 233 225 219 217 224 223 218 211 192 185 176 187 184 182 175 177 174 179 172 160
231 231 237 234 240 254 270 253 245 245 242 238 230 225 223 224 224 225 225 226 230 232 230 228 228 227 234 228 220 214 212 208 199 176 179 176 180 179 183 182 182 185 177
241 240 256 252 248 256 257 247 251 246 251 247 243 230 225 223 222 219 217 219 221 223 225 227 231 230 229 222 215 215 216 209 200 192 174 179 182 181 186 186 185 190 197